Regional Weather Roundup
Issued by NWS

Home | Current Version | Previous Version | Text Only | Print | Product List | Glossary Off
Versions: 1 2 3 4 5 6 7 8 9 10 11 12 13 14 15 16 17 18 19 20 21 22 23 24 25 26 27 28 29 30 31 32 33 34 35 36 37 38 39 40 41 42 43 44 45 46 47 48 49 50

000
ASUS43 KFSD 260510
RWRSD

WEATHER ROUNDUP FOR SOUTH DAKOTA
NATIONAL WEATHER SERVICE SIOUX FALLS SD
1100 PM CST SUN JAN 25 2015

NOTE: "FAIR" INDICATES FEW OR NO CLOUDS BELOW 12,000 FEET WITH NO
SIGNIFICANT WEATHER AND/OR OBSTRUCTIONS TO VISIBILITY.


SDZ001>005-009-010-012>017-260600-
NORTHWEST AND NORTH CENTRAL SOUTH DAKOTA

CITY           SKY/WX    TMP DP  RH WIND       PRES   REMARKS
BUFFALO          N/A     39  33  79 W12       29.86R
FAITH            N/A     44  33  65 W17       29.88R
MOBRIDGE       CLOUDY    35  30  82 S6        29.81F
$$

SDZ012>016-024>037-041>051-057-063-072>074-260600-
SOUTHWEST AND SOUTH CENTRAL SOUTH DAKOTA

CITY           SKY/WX    TMP DP  RH WIND       PRES   REMARKS
RAPID CTY ARPT CLEAR     38  27  64 N5        29.95S
PIERRE         CLOUDY    33  28  81 S3        29.87F
CUSTER         CLEAR     41  28  60 W10       30.03S
ELLSWORTH AFB  CLEAR     50  32  50 NW14      29.94S
PHILIP         MOCLDY    37  24  59 W10       29.92S
PINE RIDGE     CLEAR     41  31  67 W5        30.01S
SPEARFISH      FAIR      52  32  46 W14G24    30.02R
WINNER         FAIR      40  28  62 SW12      29.91F
$$

SDZ004>011-016>023-039-040-260600-
NORTHEAST SOUTH DAKOTA

CITY           SKY/WX    TMP DP  RH WIND       PRES   REMARKS
ABERDEEN       PTCLDY    31  29  92 S13       29.85F WCI  21
WATERTOWN      CLOUDY    30  28  92 S12       29.87F WCI  20
SISSETON         N/A     31  27  85 S8        29.84F WCI  23
$$

SDZ017-020-022-023-036>040-048>070-260600-
SOUTHEAST SOUTH DAKOTA

CITY           SKY/WX    TMP DP  RH WIND       PRES   REMARKS
SIOUX FALLS    MOCLDY    32  30  92 S6        29.97F WCI  26
HURON          PTCLDY    32  31  96 S9        29.91F WCI  24
CHAMBERLAIN    CLEAR     32  29  91 S6        29.91F WCI  26
MITCHELL       PTCLDY    34  32  92 S9        29.95F WCI  27
YANKTON        CLEAR     32  30  93 S3        30.02R
$$

ABBREVIATIONS USED IN REMARKS
   TC - TEMPERATURE IN CELSIUS
  WCI - WIND CHILL INDEX
   HX - HEAT INDEX
  VSB - VISIBILITY




USA.gov is the U.S. government's official web portal to all federal, state and local government web resources and services.